TimePST,TemperatureF,Dew PointF,Humidity,Sea Level PressureIn,VisibilityMPH,Wind Direction,Wind SpeedMPH,Gust SpeedMPH,PrecipitationIn,Events,Conditions,WindDirDegrees,DateUTC
12:35 AM,39.2,37.4,93,30.10,10.0,Calm,Calm,-,N/A,,Overcast,0,2013-02-18 08:35:00
12:55 AM,37.4,37.4,100,30.09,10.0,Calm,Calm,-,N/A,,Overcast,0,2013-02-18 08:55:00
1:15 AM,37.4,37.4,100,30.08,10.0,Calm,Calm,-,N/A,,Scattered Clouds,0,2013-02-18 09:15:00
1:35 AM,37.4,37.4,100,30.07,10.0,Calm,Calm,-,N/A,,Clear,0,2013-02-18 09:35:00
1:55 AM,35.6,35.6,100,30.07,10.0,Calm,Calm,-,N/A,,Clear,0,2013-02-18 09:55:00
2:15 AM,35.6,35.6,100,30.06,10.0,Calm,Calm,-,N/A,,Clear,0,2013-02-18 10:15:00
2:35 AM,35.6,35.6,100,30.06,10.0,Calm,Calm,-,N/A,,Clear,0,2013-02-18 10:35:00
2:55 AM,35.6,35.6,100,30.05,10.0,Calm,Calm,-,N/A,,Mostly Cloudy,0,2013-02-18 10:55:00
3:15 AM,35.6,35.6,100,30.05,10.0,Calm,Calm,-,N/A,,Partly Cloudy,0,2013-02-18 11:15:00
3:35 AM,35.6,35.6,100,30.04,10.0,Calm,Calm,-,N/A,,Partly Cloudy,0,2013-02-18 11:35:00
3:55 AM,35.6,35.6,100,30.03,10.0,Calm,Calm,-,N/A,,Scattered Clouds,0,2013-02-18 11:55:00
4:15 AM,35.6,35.6,100,30.03,10.0,Calm,Calm,-,N/A,,Scattered Clouds,0,2013-02-18 12:15:00
4:35 AM,35.6,35.6,100,30.02,10.0,Calm,Calm,-,N/A,,Scattered Clouds,0,2013-02-18 12:35:00
4:55 AM,35.6,35.6,100,30.01,10.0,Calm,Calm,-,N/A,,Scattered Clouds,0,2013-02-18 12:55:00
5:15 AM,35.6,35.6,100,30.01,10.0,Calm,Calm,-,N/A,,Scattered Clouds,0,2013-02-18 13:15:00
5:35 AM,35.6,35.6,100,30.00,10.0,Calm,Calm,-,N/A,,Mostly Cloudy,0,2013-02-18 13:35:00
5:55 AM,35.6,35.6,100,30.00,10.0,Calm,Calm,-,N/A,,Overcast,0,2013-02-18 13:55:00
6:15 AM,35.6,35.6,100,30.00,10.0,Calm,Calm,-,N/A,,Overcast,0,2013-02-18 14:15:00
6:35 AM,35.6,35.6,100,30.00,10.0,Calm,Calm,-,N/A,,Overcast,0,2013-02-18 14:35:00
6:55 AM,35.6,35.6,100,30.00,10.0,Calm,Calm,-,N/A,,Overcast,0,2013-02-18 14:55:00
7:15 AM,35.6,35.6,100,29.99,10.0,Calm,Calm,-,N/A,,Mostly Cloudy,0,2013-02-18 15:15:00
7:35 AM,35.6,35.6,100,30.00,10.0,Calm,Calm,-,N/A,,Mostly Cloudy,0,2013-02-18 15:35:00
7:55 AM,35.6,35.6,100,30.00,10.0,Calm,Calm,-,N/A,,Mostly Cloudy,0,2013-02-18 15:55:00
8:15 AM,35.6,35.6,100,29.99,10.0,Calm,Calm,-,N/A,,Mostly Cloudy,0,2013-02-18 16:15:00
8:35 AM,37.4,37.4,100,29.99,10.0,Calm,Calm,-,N/A,,Mostly Cloudy,0,2013-02-18 16:35:00
8:55 AM,37.4,35.6,93,29.99,10.0,Calm,Calm,-,N/A,,Scattered Clouds,0,2013-02-18 16:55:00
9:15 AM,39.2,35.6,87,29.98,10.0,Calm,Calm,-,N/A,,Scattered Clouds,0,2013-02-18 17:15:00
9:35 AM,39.2,35.6,87,29.97,10.0,Calm,Calm,-,N/A,,Mostly Cloudy,0,2013-02-18 17:35:00
9:55 AM,39.2,35.6,87,29.97,10.0,Calm,Calm,-,N/A,,Partly Cloudy,0,2013-02-18 17:55:00
10:15 AM,41.0,35.6,81,29.97,10.0,Calm,Calm,-,N/A,,Clear,0,2013-02-18 18:15:00
10:35 AM,41.0,33.8,76,29.96,10.0,Calm,Calm,-,N/A,,Partly Cloudy,0,2013-02-18 18:35:00
10:55 AM,42.8,35.6,76,29.96,10.0,Calm,Calm,-,N/A,,Clear,0,2013-02-18 18:55:00
11:15 AM,42.8,33.8,70,29.96,10.0,Calm,Calm,-,N/A,,Clear,0,2013-02-18 19:15:00
11:35 AM,44.6,33.8,66,29.95,10.0,West,3.5,-,N/A,,Partly Cloudy,260,2013-02-18 19:35:00
11:55 AM,44.6,32.0,61,29.94,10.0,Calm,Calm,-,N/A,,Scattered Clouds,0,2013-02-18 19:55:00
12:15 PM,44.6,32.0,61,29.94,10.0,Calm,Calm,-,N/A,,Partly Cloudy,0,2013-02-18 20:15:00
12:35 PM,44.6,32.0,61,29.93,10.0,SW,4.6,-,N/A,,Scattered Clouds,220,2013-02-18 20:35:00
12:55 PM,44.6,33.8,66,29.93,10.0,West,6.9,-,N/A,,Partly Cloudy,280,2013-02-18 20:55:00
1:15 PM,44.6,35.6,71,29.92,10.0,WSW,6.9,-,N/A,,Clear,250,2013-02-18 21:15:00
1:35 PM,44.6,35.6,71,29.91,10.0,WSW,3.5,-,N/A,,Scattered Clouds,240,2013-02-18 21:35:00
1:55 PM,44.6,35.6,71,29.91,10.0,SW,4.6,-,N/A,,Scattered Clouds,220,2013-02-18 21:55:00
2:15 PM,46.4,35.6,66,29.90,10.0,SSW,5.8,-,N/A,,Partly Cloudy,210,2013-02-18 22:15:00
2:35 PM,44.6,33.8,66,29.89,10.0,West,6.9,-,N/A,,Scattered Clouds,270,2013-02-18 22:35:00
2:55 PM,44.6,32.0,61,29.89,10.0,WSW,6.9,-,N/A,,Partly Cloudy,250,2013-02-18 22:55:00
3:15 PM,46.4,32.0,57,29.89,10.0,SW,4.6,-,N/A,,Partly Cloudy,220,2013-02-18 23:15:00
3:35 PM,44.6,32.0,61,29.88,10.0,Calm,Calm,-,N/A,,Mostly Cloudy,0,2013-02-18 23:35:00
3:55 PM,44.6,32.0,61,29.87,10.0,SW,3.5,-,N/A,,Mostly Cloudy,230,2013-02-18 23:55:00
4:15 PM,44.6,32.0,61,29.86,10.0,Calm,Calm,-,N/A,,Partly Cloudy,0,2013-02-19 00:15:00
4:35 PM,44.6,32.0,61,29.85,10.0,SW,4.6,-,N/A,,Clear,220,2013-02-19 00:35:00
4:55 PM,44.6,32.0,61,29.85,10.0,Calm,Calm,-,N/A,,Clear,0,2013-02-19 00:55:00
5:15 PM,44.6,32.0,61,29.84,10.0,SSW,3.5,-,N/A,,Clear,210,2013-02-19 01:15:00
5:35 PM,44.6,32.0,61,29.83,10.0,Calm,Calm,-,N/A,,Partly Cloudy,0,2013-02-19 01:35:00
5:55 PM,44.6,32.0,61,29.83,10.0,Calm,Calm,-,N/A,,Scattered Clouds,0,2013-02-19 01:55:00
6:15 PM,44.6,32.0,61,29.82,10.0,Calm,Calm,-,N/A,,Partly Cloudy,0,2013-02-19 02:15:00
6:35 PM,42.8,32.0,66,29.82,10.0,Calm,Calm,-,N/A,,Mostly Cloudy,0,2013-02-19 02:35:00
6:55 PM,41.0,32.0,70,29.81,10.0,Calm,Calm,-,N/A,,Mostly Cloudy,0,2013-02-19 02:55:00
7:15 PM,41.0,32.0,70,29.81,10.0,Calm,Calm,-,N/A,,Mostly Cloudy,0,2013-02-19 03:15:00
7:55 PM,41.0,32.0,70,29.79,10.0,Calm,Calm,-,N/A,,Overcast,0,2013-02-19 03:55:00
8:15 PM,39.2,33.8,81,29.79,10.0,Calm,Calm,-,N/A,,Mostly Cloudy,0,2013-02-19 04:15:00
8:35 PM,37.4,33.8,87,29.78,10.0,Calm,Calm,-,N/A,,Partly Cloudy,0,2013-02-19 04:35:00
8:55 PM,39.2,33.8,81,29.78,10.0,Calm,Calm,-,N/A,,Partly Cloudy,0,2013-02-19 04:55:00
9:15 PM,39.2,35.6,87,29.78,10.0,Calm,Calm,-,N/A,,Partly Cloudy,0,2013-02-19 05:15:00
9:35 PM,37.4,33.8,87,29.78,10.0,Calm,Calm,-,N/A,,Scattered Clouds,0,2013-02-19 05:35:00
9:55 PM,37.4,35.6,93,29.77,10.0,Calm,Calm,-,N/A,,Partly Cloudy,0,2013-02-19 05:55:00
10:15 PM,37.4,35.6,93,29.77,10.0,Calm,Calm,-,N/A,,Mostly Cloudy,0,2013-02-19 06:15:00
10:35 PM,37.4,35.6,93,29.77,10.0,Calm,Calm,-,N/A,,Scattered Clouds,0,2013-02-19 06:35:00
10:55 PM,37.4,35.6,93,29.77,10.0,Calm,Calm,-,N/A,,Clear,0,2013-02-19 06:55:00
11:15 PM,39.2,35.6,87,29.76,10.0,Calm,Calm,-,N/A,,Partly Cloudy,0,2013-02-19 07:15:00
11:35 PM,39.2,35.6,87,29.76,10.0,Calm,Calm,-,N/A,,Mostly Cloudy,0,2013-02-19 07:35:00
11:55 PM,37.4,35.6,93,29.75,10.0,Calm,Calm,-,N/A,,Scattered Clouds,0,2013-02-19 07:55:00